,,Stat5,,Stat1,,Stat2,,Stat3,,Stat4,,Wind1,,Wind1,
time,status,PA1M_AVG,status,PR1M_SUM,status,RH1M_AVG,status,SR1M_AVG,status,TA1M_AVG,status,W1dAve1m,status,W1sAve1m,
2001-11-08, 00:00:00,VALID,917.166,VALID,0,VALID,92.7508,VALID,0.0169808,VALID,19.8379,VALID,3,VALID,0.930556,
2001-11-08, 00:01:00,VALID,917.166,VALID,0,VALID,92.7292,VALID,0,VALID,19.8351,VALID,3,VALID,0.941741,
2001-11-08, 00:02:00,VALID,917.151,VALID,0,VALID,92.7012,VALID,-0.0169808,VALID,19.8376,VALID,2,VALID,0.834882,
2001-11-08, 00:03:00,VALID,917.132,VALID,0,VALID,92.6733,VALID,0,VALID,19.8446,VALID,8,VALID,0.933183,
2001-11-08, 00:04:00,VALID,917.132,VALID,0,VALID,92.7152,VALID,0.0169808,VALID,19.8511,VALID,7,VALID,0.801309,
2001-11-08, 00:05:00,VALID,917.124,VALID,0,VALID,92.7877,VALID,0.0339617,VALID,19.8443,VALID,7,VALID,0.802787,
2001-11-08, 00:06:00,VALID,917.124,VALID,0,VALID,92.8068,VALID,0,VALID,19.8247,VALID,10,VALID,0.912454,
2001-11-08, 00:07:00,VALID,917.125,VALID,0,VALID,92.8793,VALID,0.0339617,VALID,19.8212,VALID,10,VALID,0.951858,
2001-11-08, 00:08:00,VALID,917.132,VALID,0,VALID,92.9581,VALID,0,VALID,19.8351,VALID,4,VALID,0.532986,
2001-11-08, 00:09:00,VALID,917.128,VALID,0,VALID,93.0675,VALID,0,VALID,19.8279,VALID,3,VALID,0.30701,
2001-11-08, 00:10:00,VALID,917.119,VALID,0,VALID,93.1425,VALID,0.0169808,VALID,19.8081,VALID,3,VALID,0.308066,
2001-11-08, 00:11:00,VALID,917.123,VALID,0,VALID,93.2213,VALID,0,VALID,19.815,VALID,3,VALID,0.314063,
2001-11-08, 00:12:00,VALID,917.135,VALID,0,VALID,93.1666,VALID,0.0169808,VALID,19.822,VALID,356,VALID,0.711138,
2001-11-08, 00:13:00,VALID,917.131,VALID,0,VALID,93.1349,VALID,0.0339617,VALID,19.7892,VALID,351,VALID,0.556836,
2001-11-08, 00:14:00,VALID,917.137,VALID,0,VALID,93.3243,VALID,0.0339617,VALID,19.7854,VALID,357,VALID,0.635896,
2001-11-08, 00:15:00,VALID,917.129,VALID,0,VALID,93.3714,VALID,0,VALID,19.7733,VALID,4,VALID,0.749805,
2001-11-08, 00:16:00,VALID,917.108,VALID,0,VALID,93.2353,VALID,0,VALID,19.77,VALID,7,VALID,1.0627,
2001-11-08, 00:17:00,VALID,917.114,VALID,0,VALID,93.1959,VALID,0,VALID,19.7857,VALID,360,VALID,0.733594,
2001-11-08, 00:18:00,VALID,917.108,VALID,0,VALID,93.1705,VALID,0,VALID,19.7862,VALID,348,VALID,0.24116,
2001-11-08, 00:19:00,VALID,917.13,VALID,0,VALID,93.2824,VALID,0.0169808,VALID,19.7698,VALID,333,VALID,0.425195,
2001-11-08, 00:20:00,VALID,917.142,VALID,0,VALID,93.3116,VALID,0.0169808,VALID,19.7894,VALID,322,VALID,0.295673,
2001-11-08, 00:21:00,VALID,917.15,VALID,0,VALID,93.6143,VALID,0.0339617,VALID,19.7892,VALID,310,VALID,0.0132813,
2001-11-08, 00:22:00,VALID,917.146,VALID,0,VALID,93.9055,VALID,0,VALID,19.8091,VALID,305,VALID,0.00884046,
2001-11-08, 00:23:00,VALID,917.155,VALID,0,VALID,94.0542,VALID,0,VALID,19.8053,VALID,263,VALID,0.210938,
2001-11-08, 00:24:00,VALID,917.138,VALID,0,VALID,94.2132,VALID,0,VALID,19.8252,VALID,296,VALID,0.228566,
2001-11-08, 00:25:00,VALID,917.145,VALID,0,VALID,94.0873,VALID,0.0339617,VALID,19.8247,VALID,288,VALID,0.244141,
2001-11-08, 00:26:00,VALID,917.144,VALID,0,VALID,93.9271,VALID,0,VALID,19.8279,VALID,313,VALID,0.167146,
2001-11-08, 00:27:00,VALID,917.154,VALID,0,VALID,93.8025,VALID,0,VALID,19.8182,VALID,359,VALID,0.0607422,
2001-11-08, 00:28:00,VALID,917.172,VALID,0,VALID,93.8559,VALID,0.0169808,VALID,19.8153,VALID,359,VALID,0,
2001-11-08, 00:29:00,VALID,917.181,VALID,0,VALID,93.9322,VALID,0.0339617,VALID,19.8016,VALID,359,VALID,0.0925781,
2001-11-08, 00:30:00,VALID,917.211,VALID,0,VALID,93.8966,VALID,0.0679233,VALID,19.7989,VALID,359,VALID,0.129934,
2001-11-08, 00:31:00,VALID,917.213,VALID,0,VALID,93.9907,VALID,0.0339617,VALID,19.7956,VALID,359,VALID,0.0171875,
2001-11-08, 00:32:00,VALID,917.224,VALID,0,VALID,94.0873,VALID,0,VALID,19.7954,VALID,358,VALID,0.409054,
2001-11-08, 00:33:00,VALID,917.233,VALID,0,VALID,94.1712,VALID,0,VALID,19.7989,VALID,197,VALID,0.486523,
2001-11-08, 00:34:00,VALID,917.248,VALID,0,VALID,94.2348,VALID,-0.0679233,VALID,19.7842,VALID,179,VALID,0.43565,
2001-11-08, 00:35:00,VALID,917.225,VALID,0,VALID,94.3416,VALID,-0.0849042,VALID,19.7584,VALID,184,VALID,0.317578,
2001-11-08, 00:36:00,VALID,917.237,VALID,0,VALID,94.4637,VALID,-0.0849042,VALID,19.7422,VALID,187,VALID,0.0869391,
2001-11-08, 00:37:00,VALID,917.233,VALID,0,VALID,94.5616,VALID,-0.0849042,VALID,19.7263,VALID,186,VALID,0.00195313,
2001-11-08, 00:38:00,VALID,917.25,VALID,0,VALID,94.629,VALID,-0.0679233,VALID,19.7293,VALID,186,VALID,0,
2001-11-08, 00:39:00,VALID,917.258,VALID,0,VALID,94.6697,VALID,-0.0509425,VALID,19.7161,VALID,186,VALID,0,
2001-11-08, 00:40:00,VALID,917.267,VALID,0,VALID,94.7206,VALID,-0.0339617,VALID,19.7129,VALID,186,VALID,0,
2001-11-08, 00:41:00,VALID,917.261,VALID,0,VALID,94.6621,VALID,-0.0849042,VALID,19.6905,VALID,168,VALID,0.157813,
2001-11-08, 00:42:00,VALID,917.259,VALID,0,VALID,94.5565,VALID,-0.101885,VALID,19.6779,VALID,117,VALID,0.203331,
2001-11-08, 00:43:00,VALID,917.244,VALID,0,VALID,94.6659,VALID,-0.0849042,VALID,19.6485,VALID,104,VALID,0.0679687,
2001-11-08, 00:44:00,VALID,917.236,VALID,0,VALID,94.69,VALID,-0.0849042,VALID,19.6227,VALID,104,VALID,0,
2001-11-08, 00:45:00,VALID,917.24,VALID,0,VALID,94.7854,VALID,-0.101885,VALID,19.6259,VALID,55,VALID,0.188867,
2001-11-08, 00:46:00,VALID,917.234,VALID,0,VALID,94.7854,VALID,-0.0339617,VALID,19.5936,VALID,34,VALID,0.267475,
2001-11-08, 00:47:00,VALID,917.233,VALID,0,VALID,94.704,VALID,-0.0679233,VALID,19.5549,VALID,34,VALID,0.35,
2001-11-08, 00:48:00,VALID,917.217,VALID,0,VALID,94.9304,VALID,-0.0509425,VALID,19.5223,VALID,34,VALID,0.334535,
2001-11-08, 00:49:00,VALID,917.197,VALID,0,VALID,95.0944,VALID,0.0169808,VALID,19.5082,VALID,34,VALID,0.119336,
2001-11-08, 00:50:00,VALID,917.189,VALID,0,VALID,95.0944,VALID,0.0339617,VALID,19.4863,VALID,34,VALID,0.00164474,
2001-11-08, 00:51:00,VALID,917.177,VALID,0,VALID,95.1059,VALID,0.0169808,VALID,19.4535,VALID,34,VALID,0,
2001-11-08, 00:52:00,VALID,917.154,VALID,0,VALID,95.2584,VALID,0,VALID,19.4438,VALID,34,VALID,0.0735176,
2001-11-08, 00:53:00,VALID,917.136,VALID,0,VALID,95.4937,VALID,0.0169808,VALID,19.4597,VALID,34,VALID,0.131055,
2001-11-08, 00:54:00,VALID,917.097,VALID,0,VALID,95.5751,VALID,0.0169808,VALID,19.4731,VALID,34,VALID,0.358964,
2001-11-08, 00:55:00,VALID,917.072,VALID,0,VALID,95.5878,VALID,0.0339617,VALID,19.4823,VALID,34,VALID,0.191211,
2001-11-08, 00:56:00,VALID,917.043,VALID,0,VALID,95.4403,VALID,0,VALID,19.4888,VALID,34,VALID,0.364984,
2001-11-08, 00:57:00,VALID,917.037,VALID,0,VALID,95.336,VALID,0.0509425,VALID,19.4793,VALID,34,VALID,0.114258,
2001-11-08, 00:58:00,VALID,917.009,VALID,0,VALID,95.2762,VALID,0.0169808,VALID,19.4664,VALID,34,VALID,0,
2001-11-08, 00:59:00,VALID,916.988,VALID,0,VALID,95.3029,VALID,0.0169808,VALID,19.4505,VALID,34,VALID,0,
2001-11-08, 01:00:00,VALID,916.969,VALID,0,VALID,95.6476,VALID,0.0169808,VALID,19.4696,VALID,34,VALID,0,
2001-11-08, 01:01:00,VALID,916.958,VALID,0,VALID,95.6717,VALID,0.0679233,VALID,19.4952,VALID,34,VALID,0,
2001-11-08, 01:02:00,VALID,916.959,VALID,0,VALID,95.6336,VALID,0.0339617,VALID,19.5017,VALID,34,VALID,0,
2001-11-08, 01:03:00,VALID,916.955,VALID,0,VALID,95.6882,VALID,0,VALID,19.5151,VALID,34,VALID,0,
2001-11-08, 01:04:00,VALID,916.946,VALID,0,VALID,95.6043,VALID,0.0169808,VALID,19.5151,VALID,34,VALID,0,
2001-11-08, 01:05:00,VALID,916.938,VALID,0,VALID,95.5763,VALID,0.0169808,VALID,19.5089,VALID,34,VALID,0,
2001-11-08, 01:06:00,VALID,916.928,VALID,0,VALID,95.5814,VALID,0,VALID,19.5116,VALID,34,VALID,0.14741,
2001-11-08, 01:07:00,VALID,916.923,VALID,0,VALID,95.3792,VALID,0.0169808,VALID,19.5024,VALID,34,VALID,0.352539,
2001-11-08, 01:08:00,VALID,916.91,VALID,0,VALID,95.3754,VALID,0,VALID,19.4535,VALID,34,VALID,0.428486,
2001-11-08, 01:09:00,VALID,916.906,VALID,0,VALID,95.5407,VALID,0,VALID,19.4438,VALID,33,VALID,0.378125,
2001-11-08, 01:10:00,VALID,916.901,VALID,0,VALID,95.7429,VALID,0,VALID,19.4475,VALID,32,VALID,0.481702,
2001-11-08, 01:11:00,VALID,916.905,VALID,0,VALID,95.9006,VALID,0.0169808,VALID,19.4473,VALID,26,VALID,0.582227,
2001-11-08, 01:12:00,VALID,916.904,VALID,0,VALID,96.0735,VALID,0,VALID,19.4535,VALID,19,VALID,0.761218,
2001-11-08, 01:13:00,VALID,916.897,VALID,0,VALID,96.2287,VALID,0,VALID,19.4731,VALID,16,VALID,0.821875,
2001-11-08, 01:14:00,VALID,916.875,VALID,0,VALID,96.3075,VALID,0.0169808,VALID,19.4729,VALID,16,VALID,0.787623,
2001-11-08, 01:15:00,VALID,916.87,VALID,0,VALID,96.3825,VALID,0.0169808,VALID,19.4855,VALID,22,VALID,0.822656,
2001-11-08, 01:16:00,VALID,916.884,VALID,0,VALID,96.4487,VALID,0.0339617,VALID,19.5054,VALID,23,VALID,0.878606,
2001-11-08, 01:17:00,VALID,916.894,VALID,0,VALID,96.4639,VALID,0,VALID,19.5154,VALID,19,VALID,0.919727,
2001-11-08, 01:18:00,VALID,916.906,VALID,0,VALID,96.3991,VALID,0,VALID,19.5119,VALID,16,VALID,0.92722,
2001-11-08, 01:19:00,VALID,916.903,VALID,0,VALID,96.3215,VALID,0.0169808,VALID,19.499,VALID,10,VALID,0.992188,
2001-11-08, 01:20:00,VALID,916.901,VALID,0,VALID,96.5224,VALID,0.0169808,VALID,19.4858,VALID,9,VALID,1.09215,
2001-11-08, 01:21:00,VALID,916.895,VALID,0,VALID,96.7526,VALID,0.0169808,VALID,19.5149,VALID,8,VALID,0.998828,
2001-11-08, 01:22:00,VALID,916.874,VALID,0,VALID,96.8454,VALID,0.0169808,VALID,19.5511,VALID,9,VALID,0.956414,
2001-11-08, 01:23:00,VALID,916.86,VALID,0,VALID,96.7627,VALID,0.0169808,VALID,19.5573,VALID,9,VALID,0.882031,
2001-11-08, 01:24:00,VALID,916.842,VALID,0,VALID,96.6572,VALID,0,VALID,19.5444,VALID,12,VALID,0.842548,
2001-11-08, 01:25:00,VALID,916.813,VALID,0,VALID,96.7488,VALID,0,VALID,19.5641,VALID,16,VALID,1.00957,
2001-11-08, 01:26:00,VALID,916.788,VALID,0,VALID,96.8085,VALID,0,VALID,19.5795,VALID,12,VALID,0.991365,
2001-11-08, 01:27:00,VALID,916.8,VALID,0,VALID,96.6699,VALID,0.0169808,VALID,19.5959,VALID,13,VALID,0.782031,
2001-11-08, 01:28:00,VALID,916.816,VALID,0,VALID,96.689,VALID,0.0339617,VALID,19.6311,VALID,6,VALID,0.600962,
2001-11-08, 01:29:00,VALID,916.824,VALID,0,VALID,96.6814,VALID,-0.0169808,VALID,19.6572,VALID,349,VALID,0.595508,
2001-11-08, 01:30:00,VALID,916.832,VALID,0,VALID,96.6585,VALID,0.0339617,VALID,19.6764,VALID,353,VALID,0.384868,
2001-11-08, 01:31:00,VALID,916.831,VALID,0,VALID,96.647,VALID,0.0169808,VALID,19.7027,VALID,353,VALID,0.403125,
2001-11-08, 01:32:00,VALID,916.838,VALID,0,VALID,96.5809,VALID,0.0169808,VALID,19.7057,VALID,352,VALID,0.415665,
2001-11-08, 01:33:00,VALID,916.825,VALID,0,VALID,96.5669,VALID,0.0169808,VALID,19.7345,VALID,354,VALID,0.176683,
2001-11-08, 01:34:00,VALID,916.813,VALID,0,VALID,96.5262,VALID,0.0339617,VALID,19.7412,VALID,356,VALID,0.0425576,
2001-11-08, 01:35:00,VALID,916.814,VALID,0,VALID,96.4805,VALID,0.0339617,VALID,19.7606,VALID,356,VALID,0,
2001-11-08, 01:36:00,VALID,916.789,VALID,0,VALID,96.4372,VALID,0,VALID,19.7633,VALID,356,VALID,0,
2001-11-08, 01:37:00,VALID,916.778,VALID,0,VALID,96.4105,VALID,0.0169808,VALID,19.7733,VALID,356,VALID,0,
2001-11-08, 01:38:00,VALID,916.761,VALID,0,VALID,96.4652,VALID,0,VALID,19.8091,VALID,356,VALID,0.0460526,
2001-11-08, 01:39:00,VALID,916.756,VALID,0,VALID,96.4792,VALID,0.0169808,VALID,19.8349,VALID,356,VALID,0.0164062,
2001-11-08, 01:40:00,VALID,916.746,VALID,0,VALID,96.3978,VALID,0.0169808,VALID,19.8441,VALID,356,VALID,0,
2001-11-08, 01:41:00,VALID,916.736,VALID,0,VALID,96.2948,VALID,0,VALID,19.8543,VALID,356,VALID,0.217773,
2001-11-08, 01:42:00,VALID,916.731,VALID,0,VALID,96.1842,VALID,0.0339617,VALID,19.8481,VALID,355,VALID,0.101151,
2001-11-08, 01:43:00,VALID,916.71,VALID,0,VALID,96.1511,VALID,0,VALID,19.8414,VALID,355,VALID,0,
2001-11-08, 01:44:00,VALID,916.696,VALID,0,VALID,96.1358,VALID,0,VALID,19.8309,VALID,353,VALID,0,
2001-11-08, 01:45:00,VALID,916.69,VALID,0,VALID,96.1257,VALID,0,VALID,19.825,VALID,329,VALID,0.0583984,
2001-11-08, 01:46:00,VALID,916.672,VALID,0,VALID,96.1384,VALID,0.0339617,VALID,19.8058,VALID,258,VALID,0.280222,
2001-11-08, 01:47:00,VALID,916.652,VALID,0,VALID,96.2185,VALID,0.0169808,VALID,19.7927,VALID,254,VALID,0.0146484,
2001-11-08, 01:48:00,VALID,916.636,VALID,0,VALID,96.3457,VALID,0.0169808,VALID,19.776,VALID,252,VALID,0,
2001-11-08, 01:49:00,VALID,916.619,VALID,0,VALID,96.3724,VALID,0,VALID,19.7827,VALID,252,VALID,0,
2001-11-08, 01:50:00,VALID,916.603,VALID,0,VALID,96.3228,VALID,0.0339617,VALID,19.7633,VALID,252,VALID,0,
2001-11-08, 01:51:00,VALID,916.573,VALID,0,VALID,96.3151,VALID,0,VALID,19.7469,VALID,252,VALID,0,
2001-11-08, 01:52:00,VALID,916.553,VALID,0,VALID,96.3596,VALID,0.0169808,VALID,19.7345,VALID,252,VALID,0,
2001-11-08, 01:53:00,VALID,916.526,VALID,0,VALID,96.4855,VALID,0.0169808,VALID,19.7377,VALID,254,VALID,0,
2001-11-08, 01:54:00,VALID,916.524,VALID,0,VALID,96.6038,VALID,0,VALID,19.7641,VALID,322,VALID,0,
2001-11-08, 01:55:00,VALID,916.52,VALID,0,VALID,96.7068,VALID,0.0169808,VALID,19.7695,VALID,4,VALID,0.202344,
2001-11-08, 01:56:00,VALID,916.525,VALID,0,VALID,96.6788,VALID,0,VALID,19.7795,VALID,316,VALID,0.078125,
2001-11-08, 01:57:00,VALID,916.537,VALID,0,VALID,96.6699,VALID,0,VALID,19.7601,VALID,194,VALID,0.025,
2001-11-08, 01:58:00,VALID,916.55,VALID,0,VALID,96.6915,VALID,0,VALID,19.7832,VALID,194,VALID,0.000822368,
2001-11-08, 01:59:00,VALID,916.539,VALID,0,VALID,96.6699,VALID,0,VALID,19.7733,VALID,191,VALID,0,
2001-11-08, 02:00:00,VALID,916.542,VALID,0,VALID,96.7335,VALID,0,VALID,19.7835,VALID,160,VALID,0.222756,
2001-11-08, 02:01:00,VALID,916.54,VALID,0,VALID,96.7538,VALID,0,VALID,19.7835,VALID,348,VALID,0.265039,
2001-11-08, 02:02:00,VALID,916.547,VALID,0,VALID,96.6699,VALID,0,VALID,19.7636,VALID,225,VALID,0.297903,
2001-11-08, 02:03:00,VALID,916.549,VALID,0,VALID,96.6241,VALID,0.0169808,VALID,19.7241,VALID,143,VALID,0.268164,
2001-11-08, 02:04:00,VALID,916.547,VALID,0,VALID,96.717,VALID,0,VALID,19.7084,VALID,184,VALID,0.133814,
2001-11-08, 02:05:00,VALID,916.558,VALID,0,VALID,96.7666,VALID,0.0169808,VALID,19.6953,VALID,307,VALID,0.164453,
2001-11-08, 02:06:00,VALID,916.581,VALID,0,VALID,96.9497,VALID,0,VALID,19.6759,VALID,358,VALID,0.592928,
2001-11-08, 02:07:00,VALID,916.573,VALID,0,VALID,96.998,VALID,0,VALID,19.6826,VALID,15,VALID,0.301367,
2001-11-08, 02:08:00,VALID,916.585,VALID,0,VALID,96.9878,VALID,0,VALID,19.6726,VALID,27,VALID,0.240785,
2001-11-08, 02:09:00,VALID,916.577,VALID,0,VALID,96.9115,VALID,0.0509425,VALID,19.6468,VALID,354,VALID,0.244141,
2001-11-08, 02:10:00,VALID,916.56,VALID,0,VALID,97.1379,VALID,0.0169808,VALID,19.657,VALID,321,VALID,0.435855,
2001-11-08, 02:11:00,VALID,916.554,VALID,0,VALID,97.1379,VALID,0.0509425,VALID,19.6371,VALID,335,VALID,0.27207,
2001-11-08, 02:12:00,VALID,916.536,VALID,0,VALID,97.2561,VALID,0,VALID,19.654,VALID,2,VALID,0.650441,
2001-11-08, 02:13:00,VALID,916.549,VALID,0,VALID,97.2549,VALID,0.0339617,VALID,19.6272,VALID,329,VALID,0.370703,
2001-11-08, 02:14:00,VALID,916.553,VALID,0,VALID,97.279,VALID,0.0169808,VALID,19.6341,VALID,33,VALID,0.13898,
2001-11-08, 02:15:00,VALID,916.547,VALID,0,VALID,97.2015,VALID,0.0679233,VALID,19.6073,VALID,250,VALID,0.217383,
2001-11-08, 02:16:00,VALID,916.568,VALID,0,VALID,97.1544,VALID,0.0169808,VALID,19.5658,VALID,200,VALID,0.323518,
2001-11-08, 02:17:00,VALID,916.571,VALID,0,VALID,97.0908,VALID,0.0169808,VALID,19.5434,VALID,215,VALID,0.855859,
2001-11-08, 02:18:00,VALID,916.561,VALID,0,VALID,97.0361,VALID,0.0169808,VALID,19.5174,VALID,309,VALID,0.697163,
2001-11-08, 02:19:00,VALID,916.575,VALID,0,VALID,97.1709,VALID,-0.0849042,VALID,19.4863,VALID,309,VALID,0.15625,
2001-11-08, 02:20:00,VALID,916.573,VALID,0,VALID,97.321,VALID,-0.0679233,VALID,19.5027,VALID,316,VALID,0.00761218,
2001-11-08, 02:21:00,VALID,916.592,VALID,0,VALID,97.4227,VALID,-0.0509425,VALID,19.496,VALID,349,VALID,0.175781,
2001-11-08, 02:22:00,VALID,916.593,VALID,0,VALID,97.396,VALID,-0.101885,VALID,19.4868,VALID,237,VALID,0.304276,
2001-11-08, 02:23:00,VALID,916.595,VALID,0,VALID,97.3477,VALID,-0.0849042,VALID,19.4644,VALID,249,VALID,0.134766,
2001-11-08, 02:24:00,VALID,916.596,VALID,0,VALID,97.4138,VALID,-0.0849042,VALID,19.4515,VALID,336,VALID,0.460737,
2001-11-08, 02:25:00,VALID,916.623,VALID,0,VALID,97.5244,VALID,-0.0849042,VALID,19.4281,VALID,4,VALID,0.135352,
2001-11-08, 02:26:00,VALID,916.64,VALID,0,VALID,97.5842,VALID,-0.0509425,VALID,19.4386,VALID,280,VALID,0.700452,
2001-11-08, 02:27:00,VALID,916.634,VALID,0,VALID,97.5779,VALID,-0.101885,VALID,19.416,VALID,258,VALID,0.145508,
2001-11-08, 02:28:00,VALID,916.656,VALID,0,VALID,97.6402,VALID,-0.101885,VALID,19.4286,VALID,32,VALID,0.436899,
2001-11-08, 02:29:00,VALID,916.648,VALID,0,VALID,97.7648,VALID,-0.0849042,VALID,19.4386,VALID,18,VALID,0.238281,
2001-11-08, 02:30:00,VALID,916.652,VALID,0,VALID,97.9123,VALID,-0.101885,VALID,19.4676,VALID,352,VALID,0.219367,
2001-11-08, 02:31:00,VALID,916.642,VALID,0,VALID,97.6618,VALID,-0.0849042,VALID,19.4189,VALID,290,VALID,0.501172,
2001-11-08, 02:32:00,VALID,916.643,VALID,0.2,VALID,97.8055,VALID,-0.101885,VALID,19.4189,VALID,68,VALID,0.585938,
2001-11-08, 02:33:00,VALID,916.626,VALID,0,VALID,97.6974,VALID,-0.0849042,VALID,19.4023,VALID,233,VALID,0.417773,
2001-11-08, 02:34:00,VALID,916.635,VALID,0.2,VALID,97.7419,VALID,0,VALID,19.3792,VALID,33,VALID,0.363487,
2001-11-08, 02:35:00,VALID,916.622,VALID,0.2,VALID,97.8093,VALID,0,VALID,19.379,VALID,185,VALID,0.4875,
2001-11-08, 02:36:00,VALID,916.618,VALID,0.4,VALID,97.7546,VALID,0.0169808,VALID,19.34,VALID,212,VALID,0.128205,
2001-11-08, 02:37:00,VALID,916.618,VALID,0.2,VALID,97.7406,VALID,0,VALID,19.3077,VALID,213,VALID,0.0808594,
2001-11-08, 02:38:00,VALID,916.62,VALID,0.2,VALID,97.8881,VALID,0.0339617,VALID,19.3171,VALID,12,VALID,0.264803,
2001-11-08, 02:39:00,VALID,916.638,VALID,0.2,VALID,98.0165,VALID,0.0679233,VALID,19.34,VALID,43,VALID,0.292578,
2001-11-08, 02:40:00,VALID,916.616,VALID,0.2,VALID,98.0928,VALID,0.0339617,VALID,19.3596,VALID,27,VALID,0.779247,
2001-11-08, 02:41:00,VALID,916.613,VALID,0,VALID,98.0814,VALID,0.0169808,VALID,19.3303,VALID,265,VALID,0.119336,
2001-11-08, 02:42:00,VALID,916.627,VALID,0.2,VALID,98.0649,VALID,0.0169808,VALID,19.3206,VALID,168,VALID,0.174753,
2001-11-08, 02:43:00,VALID,916.621,VALID,0.2,VALID,98.0534,VALID,0,VALID,19.2918,VALID,155,VALID,0.335156,
2001-11-08, 02:44:00,VALID,916.627,VALID,0,VALID,98.0636,VALID,0.0339617,VALID,19.2724,VALID,91,VALID,0.580128,
2001-11-08, 02:45:00,VALID,916.631,VALID,0.2,VALID,98.1005,VALID,0.0169808,VALID,19.257,VALID,265,VALID,0.792188,
2001-11-08, 02:46:00,VALID,916.629,VALID,0.2,VALID,98.0852,VALID,0,VALID,19.2145,VALID,254,VALID,0.551604,
2001-11-08, 02:47:00,VALID,916.642,VALID,0.2,VALID,98.2149,VALID,0,VALID,19.2209,VALID,358,VALID,0.461523,
2001-11-08, 02:48:00,VALID,916.664,VALID,0,VALID,98.2772,VALID,-0.0169808,VALID,19.2341,VALID,340,VALID,0.307692,
2001-11-08, 02:49:00,VALID,916.664,VALID,0.2,VALID,98.3472,VALID,-0.118866,VALID,19.248,VALID,31,VALID,0.315234,
2001-11-08, 02:50:00,VALID,916.669,VALID,0.2,VALID,98.3154,VALID,-0.101885,VALID,19.242,VALID,33,VALID,0.0655839,
2001-11-08, 02:51:00,VALID,916.671,VALID,0,VALID,98.3624,VALID,-0.0679233,VALID,19.2088,VALID,60,VALID,0.17793,
2001-11-08, 02:52:00,VALID,916.671,VALID,0.2,VALID,98.3891,VALID,-0.0849042,VALID,19.2189,VALID,358,VALID,0.417468,
2001-11-08, 02:53:00,VALID,916.675,VALID,0.2,VALID,98.3891,VALID,-0.101885,VALID,19.2097,VALID,22,VALID,0.0859375,
2001-11-08, 02:54:00,VALID,916.667,VALID,0.4,VALID,98.426,VALID,-0.101885,VALID,19.2028,VALID,154,VALID,0.695929,
2001-11-08, 02:55:00,VALID,916.656,VALID,0.2,VALID,98.3637,VALID,-0.0679233,VALID,19.1739,VALID,309,VALID,0.434766,
2001-11-08, 02:56:00,VALID,916.657,VALID,0,VALID,98.3917,VALID,-0.0849042,VALID,19.1516,VALID,314,VALID,0.339343,
2001-11-08, 02:57:00,VALID,916.674,VALID,0.2,VALID,98.4565,VALID,-0.101885,VALID,19.1546,VALID,355,VALID,0.227148,
2001-11-08, 02:58:00,VALID,916.665,VALID,0.4,VALID,98.5087,VALID,-0.101885,VALID,19.1672,VALID,349,VALID,0.428454,
2001-11-08, 02:59:00,VALID,916.658,VALID,0.2,VALID,98.4934,VALID,-0.101885,VALID,19.1548,VALID,324,VALID,0.208008,
2001-11-08, 03:00:00,VALID,916.635,VALID,0.4,VALID,98.4667,VALID,-0.0509425,VALID,19.1285,VALID,196,VALID,0.307091,
2001-11-08, 03:01:00,VALID,916.621,VALID,0.2,VALID,98.5201,VALID,0,VALID,19.1241,VALID,89,VALID,0.217187,
2001-11-08, 03:02:00,VALID,916.609,VALID,0.2,VALID,98.5888,VALID,0,VALID,19.1337,VALID,29,VALID,0.983964,
2001-11-08, 03:03:00,VALID,916.603,VALID,0.2,VALID,98.5888,VALID,0,VALID,19.1434,VALID,25,VALID,1.14277,
2001-11-08, 03:04:00,VALID,916.599,VALID,0,VALID,98.6358,VALID,0,VALID,19.1603,VALID,42,VALID,0.455729,
2001-11-08, 03:05:00,VALID,916.595,VALID,0.2,VALID,98.6574,VALID,0.0169808,VALID,19.1596,VALID,16,VALID,0.417188,
2001-11-08, 03:06:00,VALID,916.608,VALID,0.2,VALID,98.6511,VALID,0.0169808,VALID,19.1566,VALID,289,VALID,0.316612,
2001-11-08, 03:07:00,VALID,916.588,VALID,0.2,VALID,98.5722,VALID,0.0169808,VALID,19.1206,VALID,137,VALID,0.398438,
2001-11-08, 03:08:00,VALID,916.592,VALID,0,VALID,98.5964,VALID,0,VALID,19.1111,VALID,45,VALID,0.482572,
2001-11-08, 03:09:00,VALID,916.585,VALID,0.2,VALID,98.6206,VALID,0.0169808,VALID,19.095,VALID,44,VALID,0.45918,
2001-11-08, 03:10:00,VALID,916.588,VALID,0,VALID,98.6447,VALID,0,VALID,19.0851,VALID,40,VALID,0.706003,
2001-11-08, 03:11:00,VALID,916.595,VALID,0.2,VALID,98.6803,VALID,0,VALID,19.1052,VALID,16,VALID,0.466016,
2001-11-08, 03:12:00,VALID,916.615,VALID,0.2,VALID,98.7083,VALID,0,VALID,19.1282,VALID,13,VALID,0.627404,
2001-11-08, 03:13:00,VALID,916.641,VALID,0,VALID,98.7172,VALID,0,VALID,19.1213,VALID,20,VALID,0.663672,
2001-11-08, 03:14:00,VALID,916.653,VALID,0.2,VALID,98.7121,VALID,0,VALID,19.1079,VALID,18,VALID,0.919408,
2001-11-08, 03:15:00,VALID,916.667,VALID,0,VALID,98.66,VALID,0,VALID,19.0828,VALID,12,VALID,0.985352,
2001-11-08, 03:16:00,VALID,916.668,VALID,0,VALID,98.6791,VALID,0,VALID,19.0828,VALID,18,VALID,1.06831,
2001-11-08, 03:17:00,VALID,916.674,VALID,0,VALID,98.7159,VALID,0.0169808,VALID,19.0791,VALID,15,VALID,0.680859,
2001-11-08, 03:18:00,VALID,916.689,VALID,0.2,VALID,98.7236,VALID,0,VALID,19.0758,VALID,19,VALID,0.64412,
2001-11-08, 03:19:00,VALID,916.691,VALID,0,VALID,98.7325,VALID,0.0509425,VALID,19.0726,VALID,20,VALID,0.384375,
2001-11-08, 03:20:00,VALID,916.702,VALID,0,VALID,98.7337,VALID,0,VALID,19.0528,VALID,17,VALID,0.482772,
2001-11-08, 03:21:00,VALID,916.701,VALID,0,VALID,98.7515,VALID,-0.0339617,VALID,19.0666,VALID,16,VALID,0.385938,
2001-11-08, 03:22:00,VALID,916.719,VALID,0,VALID,98.7744,VALID,0,VALID,19.0694,VALID,1,VALID,0.402549,
2001-11-08, 03:23:00,VALID,916.729,VALID,0,VALID,98.7604,VALID,0,VALID,19.0602,VALID,356,VALID,0.22168,
2001-11-08, 03:24:00,VALID,916.769,VALID,0.2,VALID,98.7515,VALID,0,VALID,19.0505,VALID,360,VALID,0.355569,
2001-11-08, 03:25:00,VALID,916.771,VALID,0,VALID,98.7579,VALID,0,VALID,19.0343,VALID,9,VALID,0.0648438,
2001-11-08, 03:26:00,VALID,916.778,VALID,0,VALID,98.7592,VALID,0,VALID,19.044,VALID,7,VALID,0.302015,
2001-11-08, 03:27:00,VALID,916.765,VALID,0.2,VALID,98.796,VALID,-0.0339617,VALID,19.0637,VALID,16,VALID,0.65957,
2001-11-08, 03:28:00,VALID,916.764,VALID,0,VALID,98.838,VALID,0,VALID,19.0895,VALID,25,VALID,0.619792,
2001-11-08, 03:29:00,VALID,916.757,VALID,0.2,VALID,98.8329,VALID,0,VALID,19.0925,VALID,30,VALID,0.858594,
2001-11-08, 03:30:00,VALID,916.746,VALID,0,VALID,98.8113,VALID,0,VALID,19.089,VALID,24,VALID,1.09827,
2001-11-08, 03:31:00,VALID,916.747,VALID,0,VALID,98.7935,VALID,0,VALID,19.0724,VALID,26,VALID,1.00664,
2001-11-08, 03:32:00,VALID,916.749,VALID,0.2,VALID,98.8062,VALID,0.0169808,VALID,19.0826,VALID,19,VALID,0.876002,
2001-11-08, 03:33:00,VALID,916.762,VALID,0,VALID,98.8088,VALID,0.0339617,VALID,19.0793,VALID,8,VALID,0.819922,
2001-11-08, 03:34:00,VALID,916.774,VALID,0,VALID,98.7935,VALID,0,VALID,19.0503,VALID,332,VALID,0.503495,
2001-11-08, 03:35:00,VALID,916.796,VALID,0.2,VALID,98.7287,VALID,0.0339617,VALID,18.9981,VALID,305,VALID,0.444336,
2001-11-08, 03:36:00,VALID,916.806,VALID,0,VALID,98.7274,VALID,0,VALID,18.9854,VALID,327,VALID,0.0911458,